Clinton, AR

4:17 PM CST on February 07, 2016 (GMT -0600)
Clinton

Weather History for KCCA - March, 2013

Change the Weather History Date:

Sunday, March 31, 2013

  Actual Average (KFLP) Record (KFLP)
Temperature  
Mean Temperature 58 °F -  
Max Temperature 69 °F 64 °F 82 °F (2015)
Min Temperature 46 °F 42 °F 30 °F (2003)
Degree Days  
Heating Degree Days 8    
Growing Degree Days 8 (Base 50)    
Moisture  
Dew Point 49 °F    
Average Humidity 81    
Maximum Humidity 100    
Minimum Humidity 38    
Precipitation  
Precipitation 0.22 in - - ()
Sea Level Pressure  
Sea Level Pressure 29.94 in    
Wind  
Wind Speed 2 mph (NNE)    
Max Wind Speed 7 mph    
Max Gust Speed -    
Visibility 8 miles    
Events Fog , Rain , Thunderstorm    
Averages and records for this station are not official NWS values.
T = Trace of Precipitation, MM = Missing Value Source: NWS Daily Summary

Daily Weather History Graph

Daily Weather History Graph

Search for Another Location

Airport or City:

Trip Planner

Search our weather history database for the weather conditions in past years. The results will help you decide how hot, cold, wet, or windy it might be!

Date:

Astronomy

Mar. 31, 2013 Rise Set
Actual Time 6:57 AM CDT 7:30 PM CDT
Civil Twilight 6:31 AM CDT 7:56 PM CDT
Nautical Twilight 6:01 AM CDT 8:26 PM CDT
Astronomical Twilight 5:30 AM CDT 8:57 PM CDT
Moon No Moon Rise 9:54 AM CDT (3/31)
Length of Visible Light 13h 24m
Length of Day
12h 33m
Waning Gibbous, 77% of the Moon is Illuminated
Mar 31
Waning Gibbous
Apr 2
Last Quarter
Apr 10
New
Apr 18
First Quarter
Apr 25
Full

Hourly Weather History & Observations

Time (CDT) Temp. Dew Point Humidity Pressure Visibility Wind Dir Wind Speed Gust Speed Precip Events Conditions
12:15 AM 55.4 °F 53.6 °F 94% 29.97 in 5.0 mi NNW 4.6 mph - N/A   Overcast
12:35 AM 55.4 °F 53.6 °F 94% 29.97 in 5.0 mi Calm Calm - N/A   Light Drizzle
12:55 AM 55.4 °F 53.6 °F 94% 29.97 in 4.0 mi SSW 3.5 mph - 0.02 in Rain Heavy Rain
1:15 AM 55.4 °F 55.4 °F 100% 30.00 in 2.5 mi WSW 3.5 mph - 0.07 in Rain , Thunderstorm Heavy Rain
1:35 AM 55.4 °F 55.4 °F 100% 29.97 in 3.0 mi Calm Calm - 0.13 in Rain Light Rain
1:55 AM 55.4 °F 55.4 °F 100% 29.95 in 5.0 mi Calm Calm - 0.18 in Rain Rain
2:15 AM 55.4 °F 55.4 °F 100% 29.91 in 7.0 mi North 3.5 mph - 0.02 in   Mostly Cloudy
2:35 AM 53.6 °F 53.6 °F 100% 29.90 in 7.0 mi NW 3.5 mph - 0.02 in   Clear
2:55 AM 53.6 °F 53.6 °F 100% 29.90 in 3.0 mi Calm Calm - 0.02 in   Clear
3:15 AM 53.6 °F 51.8 °F 94% 29.89 in 0.5 mi NNW 3.5 mph - N/A Fog Fog
3:35 AM 51.8 °F 51.8 °F 100% 29.90 in 0.2 mi SW 5.8 mph - N/A Fog Fog
3:55 AM 53.6 °F 51.8 °F 94% 29.89 in 4.0 mi West 5.8 mph - N/A   Partly Cloudy
4:15 AM 53.6 °F 51.8 °F 94% 29.88 in 9.0 mi Calm Calm - N/A   Clear
4:35 AM 51.8 °F 51.8 °F 100% 29.87 in 2.5 mi West 3.5 mph - N/A   Partly Cloudy
4:55 AM 50.0 °F 50.0 °F 100% 29.87 in 0.5 mi Calm Calm - N/A Fog Fog
5:15 AM 50.0 °F 48.2 °F 94% 29.87 in 0.2 mi NW 3.5 mph - N/A Fog Fog
5:35 AM 48.2 °F 48.2 °F 100% 29.88 in 0.5 mi Calm Calm - N/A Fog Fog
5:55 AM 48.2 °F 46.4 °F 93% 29.89 in 5.0 mi Calm Calm - N/A   Mostly Cloudy
6:15 AM 48.2 °F 46.4 °F 93% 29.90 in 2.0 mi Calm Calm - N/A   Mostly Cloudy
6:35 AM 48.2 °F 48.2 °F 100% 29.90 in 7.0 mi Calm Calm - N/A   Mostly Cloudy
6:55 AM 48.2 °F 48.2 °F 100% 29.90 in 7.0 mi Calm Calm - N/A Thunderstorm Scattered Clouds
7:15 AM 48.2 °F 48.2 °F 100% 29.91 in 5.0 mi Calm Calm - N/A   Mostly Cloudy
7:35 AM 48.2 °F 48.2 °F 100% 29.93 in 8.0 mi Calm Calm - N/A   Mostly Cloudy
7:55 AM 50.0 °F 50.0 °F 100% 29.92 in 6.0 mi Calm Calm - N/A Thunderstorm Partly Cloudy
8:15 AM 50.0 °F 50.0 °F 100% 29.93 in 7.0 mi Calm Calm - N/A   Partly Cloudy
8:35 AM 51.8 °F 51.8 °F 100% 29.95 in 10.0 mi Calm Calm - N/A   Mostly Cloudy
8:55 AM 51.8 °F 51.8 °F 100% 29.96 in 10.0 mi SSE 3.5 mph - N/A   Mostly Cloudy
9:15 AM 53.6 °F 53.6 °F 100% 29.96 in 10.0 mi Calm Calm - N/A   Mostly Cloudy
9:35 AM 55.4 °F 53.6 °F 94% 29.97 in 10.0 mi NNW 5.8 mph - N/A   Overcast
9:55 AM 55.4 °F 51.8 °F 88% 29.97 in 10.0 mi East 3.5 mph - N/A   Mostly Cloudy
10:15 AM 55.4 °F 51.8 °F 88% 29.96 in 10.0 mi Calm Calm - N/A   Scattered Clouds
10:35 AM 57.2 °F 51.8 °F 82% 29.95 in 10.0 mi Calm Calm - N/A   Partly Cloudy
10:55 AM 57.2 °F 51.8 °F 82% 29.96 in 10.0 mi NE 3.5 mph - N/A   Clear
11:15 AM 57.2 °F 51.8 °F 82% 29.97 in 10.0 mi NNE 3.5 mph - N/A   Scattered Clouds
11:35 AM 59.0 °F 51.8 °F 77% 29.98 in 10.0 mi ENE 5.8 mph - N/A   Scattered Clouds
11:55 AM 60.8 °F 50.0 °F 68% 29.97 in 10.0 mi ENE 4.6 mph - N/A   Mostly Cloudy
12:15 PM 60.8 °F 51.8 °F 72% 29.97 in 10.0 mi NE 3.5 mph - N/A   Mostly Cloudy
12:35 PM 60.8 °F 50.0 °F 68% 29.98 in 10.0 mi ENE 6.9 mph - N/A   Scattered Clouds
12:55 PM 60.8 °F 50.0 °F 68% 29.98 in 10.0 mi Calm Calm - N/A   Mostly Cloudy
1:15 PM 62.6 °F 51.8 °F 68% 29.97 in 10.0 mi NE 4.6 mph - N/A   Overcast
1:35 PM 62.6 °F 48.2 °F 59% 29.97 in 10.0 mi NE 3.5 mph - N/A   Scattered Clouds
1:55 PM 62.6 °F 48.2 °F 59% 29.96 in 10.0 mi ESE 3.5 mph - N/A   Mostly Cloudy
2:15 PM 62.6 °F 50.0 °F 63% 29.96 in 10.0 mi SE 3.5 mph - N/A   Mostly Cloudy
2:35 PM 62.6 °F 50.0 °F 63% 29.95 in 10.0 mi SSW 3.5 mph - N/A   Mostly Cloudy
2:55 PM 64.4 °F 51.8 °F 64% 29.95 in 10.0 mi West 3.5 mph - N/A   Mostly Cloudy
3:15 PM 64.4 °F 48.2 °F 56% 29.94 in 10.0 mi Calm Calm - N/A   Mostly Cloudy
3:35 PM 66.2 °F 48.2 °F 52% 29.93 in 10.0 mi NE 4.6 mph - N/A   Mostly Cloudy
3:55 PM 66.2 °F 44.6 °F 46% 29.93 in 10.0 mi Calm Calm - N/A   Partly Cloudy
4:15 PM 68.0 °F 44.6 °F 43% 29.92 in 10.0 mi NNE 4.6 mph - N/A   Clear
4:35 PM 68.0 °F 42.8 °F 40% 29.92 in 10.0 mi North 4.6 mph - N/A   Clear
4:55 PM 68.0 °F 44.6 °F 43% 29.91 in 10.0 mi ESE 4.6 mph - N/A   Clear
5:15 PM 68.0 °F 44.6 °F 43% 29.91 in 10.0 mi Calm Calm - N/A   Clear
5:35 PM 69.8 °F 44.6 °F 40% 29.91 in 10.0 mi Calm Calm - N/A   Partly Cloudy
5:55 PM 69.8 °F 44.6 °F 40% 29.91 in 10.0 mi NE 3.5 mph - N/A   Scattered Clouds
6:15 PM 69.8 °F 42.8 °F 38% 29.92 in 10.0 mi NE 3.5 mph - N/A   Mostly Cloudy
6:35 PM 68.0 °F 42.8 °F 40% 29.92 in 10.0 mi Calm Calm - N/A   Partly Cloudy
7:15 PM 64.4 °F 48.2 °F 56% 29.92 in 10.0 mi Calm Calm - N/A   Clear
7:35 PM 59.0 °F 48.2 °F 67% 29.92 in 10.0 mi Calm Calm - N/A   Clear
7:55 PM 57.2 °F 48.2 °F 72% 29.93 in 10.0 mi Calm Calm - N/A   Clear
8:15 PM 53.6 °F 48.2 °F 82% 29.93 in 7.0 mi Calm Calm - N/A   Clear
8:35 PM 53.6 °F 48.2 °F 82% 29.94 in 7.0 mi Calm Calm - N/A   Clear
8:55 PM 51.8 °F 48.2 °F 88% 29.95 in 10.0 mi Calm Calm - N/A   Clear
9:15 PM 50.0 °F 48.2 °F 94% 29.95 in 10.0 mi Calm Calm - N/A   Clear
9:35 PM 48.2 °F 46.4 °F 93% 29.96 in 9.0 mi Calm Calm - N/A   Clear
10:15 PM 48.2 °F 46.4 °F 93% 29.97 in 10.0 mi Calm Calm - N/A   Clear
10:35 PM 46.4 °F 46.4 °F 100% 29.97 in 9.0 mi Calm Calm - N/A   Clear
10:55 PM 46.4 °F 44.6 °F 93% 29.98 in 10.0 mi Calm Calm - N/A   Clear
11:15 PM 46.4 °F 44.6 °F 93% 29.98 in 10.0 mi Calm Calm - N/A   Clear
11:35 PM 46.4 °F 44.6 °F 93% 29.98 in 10.0 mi Calm Calm - N/A   Clear